FW5884 Weather Reports


time (UTC)temp
C
wind
direction
speed
KPH
gust
KPH
rain 1hr
cm
rain 24hr
cm
rain mn
cm
humidity
%
barometer
mb
20260507052530 15 134 0.0 1.6 0.00 2.24 0.00 91 1012.0
20260507052029 15 143 0.0 0.0 0.00 2.24 0.00 92 1012.0
20260507051528 15 140 0.0 0.0 0.00 2.24 0.00 93 1011.9
20260507051027 15 140 0.0 0.0 0.00 2.24 0.00 93 1011.9
20260507050526 15 140 0.0 0.0 0.00 2.24 0.00 93 1011.8
20260507050032 15 140 0.0 0.0 0.00 2.24 0.00 93 1011.8
20260507045529 15 139 0.0 0.0 0.00 2.24 0.00 93 1011.7
20260507045030 15 139 0.0 0.0 0.00 2.24 0.00 93 1011.7
20260507044540 15 139 0.0 0.0 0.00 2.24 0.00 93 1011.7
20260507044026 15 139 0.0 0.0 0.00 2.24 0.00 93 1011.6
20260507043526 15 139 0.0 0.0 0.00 2.24 0.00 93 1011.7
20260507043027 15 139 0.0 0.0 0.00 2.24 0.00 93 1011.5
20260507042526 14 139 0.0 0.0 0.00 2.24 0.00 93 1011.5
20260507042024 14 139 0.0 0.0 0.00 2.24 0.00 93 1011.5
20260507041525 14 139 0.0 0.0 0.00 2.24 0.00 93 1011.5
20260507041025 14 139 0.0 0.0 0.00 2.24 0.00 93 1011.6
20260507040525 14 139 0.0 0.0 0.00 2.24 0.00 92 1011.4
20260507040024 14 139 0.0 0.0 0.00 2.24 0.00 92 1011.4
20260507035524 15 139 0.0 0.0 0.00 2.24 0.00 93 1011.3
20260507035024 14 139 0.0 0.0 0.00 2.24 0.00 93 1011.3
20260507034523 14 139 0.0 0.0 0.00 2.24 0.00 93 1011.4
20260507034023 14 139 0.0 0.0 0.00 2.24 0.00 92 1011.3
20260507033523 14 139 0.0 0.0 0.00 2.24 0.00 92 1011.4
20260507033024 14 139 0.0 0.0 0.00 2.24 0.00 92 1011.3
20260507032523 14 139 0.0 0.0 0.00 2.24 0.00 92 1011.2
20260507032022 14 139 0.0 0.0 0.00 2.24 0.00 92 1011.4
20260507031522 14 139 0.0 0.0 0.00 2.24 0.00 92 1011.3
20260507031024 15 139 0.0 0.0 0.00 2.24 0.00 92 1011.3
20260507030522 15 139 0.0 0.0 0.00 2.24 0.00 92 1011.5
20260507030022 15 139 0.0 0.0 0.00 2.24 0.00 92 1011.4
20260507025522 15 139 0.0 0.0 0.00 2.24 0.00 91 1011.3
20260507025022 15 139 0.0 0.0 0.00 2.24 0.00 91 1011.3
20260507024522 15 139 0.0 0.0 0.00 2.24 0.00 91 1011.4
20260507024022 15 139 0.0 1.6 0.00 2.24 0.00 91 1011.4
20260507023524 15 139 0.0 1.6 0.00 2.24 0.00 91 1011.2
20260507023021 15 141 0.0 0.0 0.00 2.24 0.00 91 1011.3
20260507022521 15 141 0.0 1.6 0.00 2.24 0.00 91 1011.4
20260507022021 15 135 0.0 1.6 0.00 2.24 0.00 91 1011.4
20260507021520 15 137 0.0 0.0 0.00 2.24 0.00 90 1011.4
20260507021020 15 137 0.0 0.0 0.00 2.24 0.00 90 1011.5
20260507020519 15 146 0.0 0.0 0.00 2.24 0.00 90 1011.4
20260507020018 15 148 0.0 6.4 0.00 2.24 0.00 90 1011.3
20260507015516 15 148 1.6 6.4 0.00 2.24 0.00 90 1011.4
20260507015019 15 155 0.0 1.6 0.00 2.24 0.00 90 1011.4
20260507014513 15 132 0.0 1.6 0.00 2.24 0.00 90 1011.3
20260507014012 15 139 0.0 0.0 0.00 2.24 0.00 90 1011.4
20260507013510 15 139 0.0 3.2 0.00 2.24 0.00 90 1011.5
20260507013008 15 139 0.0 3.2 0.00 2.24 0.00 90 1011.4
20260507012511 15 106 0.0 0.0 0.00 2.24 0.00 90 1011.3
20260507012006 15 101 0.0 0.0 0.00 2.24 0.00 90 1011.3
20260507011505 15 115 0.0 1.6 0.00 2.24 0.00 90 1011.3
20260507011004 15 146 0.0 0.0 0.00 2.24 0.00 90 1011.3
20260507010502 15 146 0.0 0.0 0.00 2.24 0.00 90 1011.4
20260507010116 15 146 0.0 1.6 0.00 2.24 0.00 90 1011.3
20260507005600 15 148 0.0 1.6 0.00 2.24 0.00 90 1011.4
20260507005101 15 124 0.0 0.0 0.00 2.24 0.00 90 1011.3
20260507004559 15 157 0.0 0.0 0.00 2.24 0.00 90 1011.3
20260507004059 15 157 0.0 0.0 0.00 2.24 0.00 91 1011.4
20260507003559 15 85 0.0 0.0 0.00 2.24 0.00 90 1011.4
20260507003058 15 83 0.0 0.0 0.00 2.24 0.00 90 1011.4
20260507002558 15 83 0.0 0.0 0.00 2.24 0.00 90 1011.3
20260507002058 15 83 0.0 0.0 0.00 2.24 0.00 89 1011.3
20260507001605 15 83 0.0 3.2 0.00 2.24 0.00 89 1011.3
20260507001101 15 73 0.0 3.2 0.00 2.24 0.00 89 1011.5
20260507000557 15 72 0.0 3.2 0.00 2.24 0.00 89 1011.5
20260507000057 15 125 0.0 3.2 0.00 2.24 0.00 89 1011.4
20260506235557 15 169 0.0 1.6 0.00 2.24 0.00 90 1011.5
20260506235058 15 158 0.0 1.6 0.00 2.24 0.00 90 1011.5
20260506234558 15 86 0.0 3.2 0.00 2.24 0.00 90 1011.5
20260506234055 15 91 0.0 3.2 0.00 2.24 0.00 91 1011.6
20260506233553 15 136 0.0 0.0 0.00 2.24 0.00 91 1011.6
20260506233054 15 136 0.0 0.0 0.00 2.24 0.00 91 1011.7
20260506232549 15 136 0.0 1.6 0.00 2.24 0.00 91 1011.7
20260506232049 15 136 0.0 1.6 0.00 2.24 0.00 91 1011.7
20260506231549 15 162 0.0 1.6 0.00 2.24 0.00 91 1011.9
20260506231052 15 162 0.0 1.6 0.00 2.24 0.00 91 1011.9
20260506230552 15 101 0.0 1.6 0.00 2.24 0.00 91 1011.8
20260506230050 14 85 0.0 3.2 0.00 2.24 0.00 91 1011.8
20260506225548 14 122 0.0 3.2 0.00 2.24 0.00 91 1011.9
20260506225048 14 90 0.0 4.8 0.00 2.24 0.00 91 1011.8
20260506224548 14 92 1.6 4.8 0.00 2.24 0.00 92 1011.7
20260506224046 14 82 0.0 1.6 0.00 2.24 0.00 92 1011.7
20260506223546 14 101 0.0 0.0 0.00 2.24 0.00 92 1011.8
20260506223047 14 101 0.0 0.0 0.00 2.24 0.00 92 1011.8
20260506222546 14 101 0.0 0.0 0.00 2.24 0.00 92 1011.8
20260506222045 14 91 0.0 0.0 0.00 2.24 0.00 92 1011.7
20260506221547 14 118 0.0 0.0 0.00 2.24 0.00 92 1011.6
20260506221044 14 118 0.0 0.0 0.00 2.24 0.00 92 1011.7
20260506220544 14 118 0.0 4.8 0.00 2.24 0.00 92 1011.7
20260506220044 14 73 0.0 4.8 0.00 2.24 0.00 92 1011.6
20260506215545 14 120 0.0 0.0 0.00 2.24 2.24 92 1011.6
20260506215043 14 120 0.0 0.0 0.00 2.24 2.24 92 1011.7
20260506214545 14 120 0.0 0.0 0.00 2.24 2.24 92 1011.7
20260506214042 14 120 0.0 0.0 0.00 2.24 2.24 92 1011.6
20260506213543 14 120 0.0 0.0 0.00 2.24 2.24 92 1011.5
20260506213042 14 120 0.0 0.0 0.00 2.24 2.24 92 1011.5
20260506212544 14 119 0.0 0.0 0.00 2.24 2.24 92 1011.5
20260506212044 14 120 0.0 0.0 0.00 2.24 2.24 92 1011.5
20260506211542 14 120 0.0 0.0 0.00 2.24 2.24 92 1011.5
20260506211041 14 120 0.0 1.6 0.00 2.24 2.24 93 1011.6
20260506210544 14 120 0.0 1.6 0.00 2.24 2.24 94 1011.7
20260506210048 15 120 0.0 1.6 0.00 2.24 2.24 94 1011.6
20260506205541 15 120 0.0 0.0 0.00 2.24 2.24 94 1011.6
20260506205043 15 120 0.0 0.0 0.00 2.24 2.24 94 1011.5
20260506204542 15 120 0.0 0.0 0.00 2.24 2.24 94 1011.6
20260506204041 15 120 0.0 0.0 0.00 2.24 2.24 94 1011.6
20260506203540 15 120 0.0 0.0 0.00 2.24 2.24 94 1011.6
20260506203048 15 120 0.0 0.0 0.00 2.24 2.24 94 1011.6
20260506202540 15 120 0.0 0.0 0.00 2.24 2.24 94 1011.5
20260506202040 15 120 0.0 0.0 0.00 2.24 2.24 94 1011.6
20260506201554 15 120 0.0 0.0 0.00 2.24 2.24 94 1011.5
20260506201040 15 120 0.0 0.0 0.00 2.24 2.24 94 1011.5
20260506200539 15 120 0.0 0.0 0.00 2.24 2.24 94 1011.5
20260506200039 15 120 0.0 0.0 0.00 2.24 2.24 93 1011.5
20260506195540 15 120 0.0 0.0 0.00 2.24 2.24 93 1011.2
20260506195041 15 121 0.0 0.0 0.00 2.24 2.24 93 1011.3
20260506194548 15 120 0.0 0.0 0.00 2.24 2.24 93 1011.3
20260506194040 15 162 0.0 1.6 0.00 2.24 2.24 93 1011.2
20260506193540 15 85 0.0 4.8 0.00 2.24 2.24 94 1011.0
20260506193044 15 129 0.0 4.8 0.00 2.24 2.24 94 1011.0
20260506192538 15 102 0.0 1.6 0.00 2.24 2.24 94 1010.9
20260506192040 15 102 0.0 1.6 0.00 2.24 2.24 94 1010.8
20260506191542 15 105 0.0 0.0 0.00 2.24 2.24 94 1010.7
20260506191038 15 105 0.0 0.0 0.00 2.24 2.24 94 1010.6
20260506190537 15 105 0.0 0.0 0.00 2.24 2.24 93 1010.5
20260506190038 15 105 0.0 0.0 0.00 2.24 2.24 93 1010.4
20260506185537 15 105 0.0 4.8 0.00 2.24 2.24 93 1010.2
20260506185037 15 105 0.0 4.8 0.00 2.24 2.24 93 1010.3
20260506184547 15 129 0.0 1.6 0.00 2.24 2.24 94 1010.2
20260506184037 15 129 0.0 3.2 0.00 2.24 2.24 94 1010.0
20260506183539 15 155 0.0 3.2 0.00 2.24 2.24 94 1010.1
20260506183040 15 127 0.0 3.2 0.00 2.24 2.24 94 1010.1
20260506182536 15 113 0.0 6.4 0.00 2.24 2.24 95 1010.1
20260506182036 15 137 0.0 1.6 0.00 2.24 2.24 95 1010.1
20260506181536 15 96 0.0 0.0 0.00 2.24 2.24 95 1010.2
20260506181035 15 96 0.0 0.0 0.00 2.24 2.24 94 1010.1
20260506180537 15 125 0.0 0.0 0.00 2.24 2.24 94 1010.2
20260506180036 16 125 0.0 0.0 0.00 2.24 2.24 94 1010.1
20260506175536 16 90 0.0 0.0 0.15 2.24 2.24 94 1010.1
20260506175035 16 87 0.0 0.0 0.41 2.24 2.24 94 1010.1
20260506174535 16 87 0.0 0.0 0.41 2.24 2.24 94 1010.1
20260506174035 16 87 0.0 0.0 0.41 2.24 2.24 94 1010.1
20260506173538 16 82 0.0 0.0 0.41 2.24 2.24 94 1010.2
20260506173040 16 82 0.0 0.0 0.41 2.24 2.24 93 1010.1
20260506172534 16 114 0.0 0.0 0.41 2.24 2.24 93 1010.1
20260506172034 16 117 0.0 0.0 0.41 2.24 2.24 92 1010.0
20260506171544 16 117 0.0 0.0 0.41 2.24 2.24 92 1010.0
20260506171035 16 117 0.0 1.6 0.41 2.24 2.24 91 1009.8
20260506170533 16 77 0.0 6.4 0.41 2.24 2.24 91 1009.7
20260506170034 16 150 0.0 6.4 0.41 2.24 2.24 89 1009.8
20260506165535 17 158 0.0 6.4 0.15 2.03 1.98 86 1009.9
20260506165033 17 107 0.0 3.2 0.00 1.91 1.83 85 1009.2
20260506164533 17 92 0.0 8.0 0.00 1.91 1.83 84 1008.9
20260506164031 17 133 0.0 8.0 0.00 1.91 1.83 84 1008.9
20260506163532 17 109 0.0 4.8 0.00 1.91 1.83 84 1009.0
20260506163039 17 155 0.0 9.7 0.00 1.91 1.83 84 1009.2
20260506162532 17 137 1.6 9.7 0.00 1.91 1.83 84 1009.3
20260506162032 17 104 0.0 4.8 0.00 1.91 1.83 84 1009.5
20260506161532 18 165 0.0 1.6 0.00 1.91 1.83 85 1009.6
20260506161027 18 135 0.0 1.6 0.00 1.91 1.83 86 1009.6
20260506160535 18 101 0.0 0.0 0.00 1.91 1.83 87 1009.6
20260506160030 18 101 0.0 0.0 0.00 1.91 1.83 87 1009.6
20260506155526 17 154 0.0 0.0 0.00 2.03 1.83 86 1009.7
20260506155025 17 77 0.0 4.8 0.00 2.03 1.83 88 1009.6
20260506154531 17 133 0.0 4.8 0.00 2.03 1.83 88 1009.7
20260506154026 17 171 0.0 4.8 0.00 2.03 1.83 88 1009.7
20260506153524 17 123 0.0 4.8 0.00 2.03 1.83 87 1009.7
20260506153022 17 167 0.0 1.6 0.00 2.03 1.83 89 1009.7
20260506152525 17 101 0.0 4.8 0.00 2.03 1.83 89 1009.9
20260506152020 17 148 0.0 4.8 0.00 2.03 1.83 89 1010.0
20260506151521 17 159 0.0 1.6 0.00 2.03 1.83 89 1010.1
20260506151022 17 86 0.0 0.0 0.00 2.03 1.83 89 1010.1
20260506150519 17 109 0.0 0.0 0.00 2.03 1.83 91 1010.3
20260506150019 17 108 0.0 4.8 0.00 2.03 1.83 90 1010.4
20260506145518 17 129 0.0 0.0 0.00 2.11 1.83 93 1010.4
20260506145016 17 129 0.0 1.6 0.00 2.11 1.83 93 1010.4
20260506144516 16 110 0.0 1.6 0.00 2.11 1.83 95 1010.5
20260506144014 16 316 0.0 0.0 0.00 2.11 1.83 95 1010.5
20260506143513 16 359 0.0 0.0 0.00 2.11 1.83 95 1010.6
20260506143016 16 112 0.0 0.0 0.00 2.11 1.83 95 1010.6
20260506142510 15 111 0.0 0.0 0.00 2.11 1.83 95 1010.7
20260506142011 15 111 0.0 0.0 0.00 2.11 1.83 95 1010.6
20260506141510 15 111 0.0 0.0 0.00 2.11 1.83 94 1010.7
20260506141009 15 112 0.0 0.0 0.00 2.11 1.83 94 1010.7
20260506140511 15 113 0.0 0.0 0.00 2.11 1.83 94 1010.7
20260506140008 15 113 0.0 0.0 0.00 2.11 1.83 94 1010.7
20260506135510 15 113 0.0 0.0 0.00 2.11 1.83 94 1010.8
20260506135008 15 113 0.0 0.0 0.00 2.11 1.83 94 1010.8
20260506134508 15 113 0.0 0.0 0.00 2.11 1.83 93 1010.9
20260506134007 15 94 0.0 0.0 0.00 2.11 1.83 93 1011.0
20260506133507 15 92 0.0 0.0 0.00 2.11 1.83 93 1011.0
20260506133006 15 92 0.0 0.0 0.00 2.11 1.83 93 1011.0
20260506132505 15 92 0.0 0.0 0.03 2.11 1.83 93 1011.1
20260506132005 15 92 0.0 0.0 0.03 2.11 1.83 93 1011.2
20260506131505 15 72 0.0 0.0 0.03 2.11 1.83 93 1011.2
20260506131005 15 134 0.0 0.0 0.03 2.11 1.83 93 1011.3
20260506130508 15 153 0.0 4.8 0.03 2.11 1.83 93 1011.4
20260506130006 15 152 0.0 4.8 0.03 2.13 1.83 93 1011.3
20260506125503 15 137 0.0 3.2 0.03 2.13 1.83 93 1011.5
20260506125005 15 110 0.0 1.6 0.05 2.13 1.83 93 1011.6
20260506124503 15 106 0.0 3.2 0.08 2.13 1.83 94 1011.7
20260506124005 15 143 0.0 6.4 0.08 2.13 1.83 94 1011.6
20260506123504 15 124 1.6 6.4 0.08 2.13 1.83 94 1011.6
20260506123002 15 155 0.0 9.7 0.08 2.13 1.83 94 1011.5
20260506122502 15 98 1.6 9.7 0.05 2.11 1.83 94 1011.5
20260506122001 15 98 0.0 4.8 0.05 2.11 1.83 94 1011.5
20260506121607 15 134 0.0 4.8 0.05 2.11 1.83 94 1011.4
20260506121500 15 151 0.0 4.8 0.05 2.11 1.83 94 1011.4
20260506121001 15 113 0.0 3.2 0.05 2.11 1.83 94 1011.5
20260506120600 15 136 0.0 0.0 0.05 2.11 1.83 94 1011.4
20260506120111 15 152 0.0 3.2 0.05 2.11 1.83 94 1011.5
20260506115601 15 153 0.0 3.2 0.05 2.21 1.83 94 1011.5
20260506115059 15 151 0.0 4.8 0.05 2.18 1.80 94 1011.6
20260506114621 15 148 0.0 4.8 0.03 2.16 1.78 93 1011.4
20260506114059 15 146 0.0 6.4 0.00 2.13 1.75 93 1011.5
20260506113701 15 122 0.0 6.4 0.00 2.13 1.75 93 1011.5
20260506113100 15 127 0.0 6.4 0.00 2.13 1.75 93 1011.5
20260506112601 15 92 0.0 6.4 0.00 2.13 1.75 93 1011.5
20260506112058 15 120 0.0 11.3 0.00 2.13 1.75 93 1011.5
20260506111558 15 63 0.0 8.0 0.00 2.13 1.75 93 1011.5
20260506111058 15 120 0.0 6.4 0.03 2.13 1.75 94 1011.5
20260506110601 15 156 1.6 9.7 0.03 2.13 1.75 93 1011.5
20260506110057 15 138 1.6 9.7 0.03 2.13 1.75 94 1011.5
20260506105601 15 73 0.0 6.4 0.03 2.16 1.75 94 1011.5
20260506105056 15 134 0.0 6.4 0.03 2.16 1.75 95 1011.5
20260506104557 15 153 0.0 1.6 0.03 2.16 1.75 95 1011.5
20260506104055 15 101 0.0 1.6 0.08 2.16 1.75 95 1011.5
20260506103555 14 146 0.0 8.0 0.18 2.16 1.75 95 1011.6
20260506103055 14 82 1.6 8.0 0.20 2.16 1.75 95 1011.8
20260506102553 14 146 0.0 8.0 0.23 2.16 1.75 95 1011.7
20260506102052 14 127 1.6 8.0 0.25 2.16 1.75 95 1011.8
20260506101552 14 134 0.0 3.2 0.28 2.16 1.75 95 1012.0
20260506101053 14 134 0.0 3.2 0.28 2.13 1.75 95 1012.1
20260506100552 14 128 0.0 9.7 0.28 2.13 1.75 95 1011.9
20260506100052 14 118 0.0 9.7 0.28 2.13 1.75 95 1012.0
20260506095552 14 129 0.0 4.8 0.28 2.16 1.75 95 1012.0
20260506095052 14 149 0.0 3.2 0.28 2.16 1.75 95 1012.0
20260506094552 14 132 0.0 3.2 0.28 2.16 1.75 95 1012.1
20260506094051 14 115 0.0 1.6 0.20 2.08 1.65 95 1012.1
20260506093550 14 124 0.0 6.4 0.15 2.01 1.57 95 1012.0
20260506093107 14 157 0.0 3.2 0.13 1.98 1.55 95 1012.1
20260506092549 14 146 0.0 6.4 0.13 1.96 1.55 95 1012.1
20260506092049 15 150 0.0 6.4 0.08 1.93 1.50 95 1012.1
20260506091549 15 154 0.0 3.2 0.05 1.88 1.42 95 1012.2
20260506091049 15 98 0.0 3.2 0.08 1.88 1.42 95 1012.1
20260506090548 15 116 0.0 8.0 0.15 1.88 1.42 96 1012.0
20260506090055 15 120 0.0 8.0 0.18 1.88 1.42 95 1011.9
20260506085547 15 127 0.0 4.8 0.23 1.88 1.42 96 1011.9
20260506085047 15 129 0.0 6.4 0.23 1.88 1.42 96 1011.9
20260506084546 15 89 1.6 6.4 0.25 1.88 1.42 96 1011.9
20260506084045 14 113 0.0 3.2 0.28 1.88 1.42 96 1011.9
20260506083545 14 128 0.0 6.4 0.28 1.85 1.42 96 1011.9
20260506083045 14 125 0.0 6.4 0.33 1.85 1.42 96 1011.9
20260506082544 14 114 0.0 0.0 0.33 1.83 1.42 96 1012.0
20260506082044 14 106 0.0 1.6 0.38 1.83 1.42 96 1012.0
20260506081544 14 103 0.0 0.0 0.41 1.83 1.40 96 1012.0
20260506081044 14 94 0.0 0.0 0.36 1.78 1.37 96 1011.9
20260506080544 14 94 0.0 0.0 0.33 1.75 1.32 96 1011.8
20260506073043 14 81 0.0 0.0 0.33 1.55 1.12 96 1011.8
20260506072541 14 81 0.0 0.0 0.33 1.45 1.07 96 1011.8
20260506072042 14 80 0.0 0.0 0.33 1.42 1.02 95 1011.8
20260506071540 14 80 0.0 0.0 0.30 1.42 0.99 95 1011.8
20260506071042 14 80 0.0 0.0 0.30 1.40 0.99 95 1011.8
20260506070541 14 102 0.0 0.0 0.30 1.40 0.99 95 1011.8
20260506062039 14 105 0.0 0.0 0.71 1.12 0.71 95 1011.8
20260506061554 14 106 0.0 1.6 0.69 1.09 0.69 94 1011.8
20260506061039 14 101 0.0 1.6 0.69 1.09 0.69 94 1011.7
20260506060538 14 27 0.0 1.6 0.69 1.09 0.69 94 1011.6